Batesville, AR

6:08 AM CDT on September 19, 2019 (GMT -0500)
Batesville Regional

Weather History for KBVX - August, 2019

Change the Weather History Date:

Saturday, August 24, 2019

  Actual Average Record
Temperature  
Mean Temperature 72 °F -  
Max Temperature 75 °F 91 °F 106 °F (1978)
Min Temperature 68 °F 65 °F 53 °F (1952)
Cooling Degree Days 6    
Growing Degree Days 22 (Base 50)    
Moisture  
Dew Point 69 °F    
Average Humidity 91    
Maximum Humidity 96    
Minimum Humidity 87    
Precipitation  
Precipitation 0.21 in - - ()
Sea Level Pressure  
Sea Level Pressure 30.04 in    
Wind  
Wind Speed 5 mph ()    
Max Wind Speed 12 mph    
Max Gust Speed -    
Visibility 9.1 miles    
Events Rain    
Averages and records for this station are not official NWS values.
T = Trace of Precipitation, MM = Missing Value Source: Averaged Metar Reports

Daily Weather History Graph

Daily Weather History Graph

Search for Another Location

Airport or City:

Astronomy

Aug. 24, 2019 Rise Set
Actual Time 6:32 AM CDT 7:45 PM CDT
Civil Twilight 6:05 AM CDT 8:11 PM CDT
Nautical Twilight 5:34 AM CDT 8:43 PM CDT
Astronomical Twilight 5:01 AM CDT 9:15 PM CDT
Moon 12:29 AM CDT (8/24) 2:55 PM CDT (8/24)
Length of Visible Light 14h 05m
Length of Day
13h 12m
Last Quarter, 39% of the Moon is Illuminated
Aug 24
Last Quarter
Aug 30
New
Sep 5
First Quarter
Sep 13
Full
Sep 21
Last Quarter

Hourly Weather History & Observations

Time (CDT) Temp. Dew Point Humidity Pressure Visibility Wind Dir Wind Speed Gust Speed Precip Events Conditions
12:56 AM 75.0 °F 72.0 °F 90% 30.01 in 10.0 mi ENE 6.9 mph - N/A   Clear
1:56 AM 75.0 °F 71.1 °F 87% 30.03 in 10.0 mi Variable 3.5 mph - N/A   Overcast
3:56 AM 73.0 °F 69.1 °F 87% 30.04 in 10.0 mi ENE 5.8 mph - N/A   Overcast
4:56 AM 72.0 °F 69.1 °F 91% 30.02 in 10.0 mi ENE 5.8 mph - N/A   Overcast
5:56 AM 72.0 °F 69.1 °F 91% 30.04 in 10.0 mi ENE 4.6 mph - N/A   Overcast
6:56 AM 72.0 °F 69.1 °F 91% 30.05 in 10.0 mi ENE 11.5 mph - N/A   Overcast
7:56 AM 69.1 °F 68.0 °F 96% 30.06 in 10.0 mi ENE 6.9 mph - 0.01 in   Overcast
8:56 AM 69.1 °F 68.0 °F 96% 30.08 in 6.0 mi NW 5.8 mph - N/A   Overcast
9:12 AM 68.0 °F 66.2 °F 94% 30.09 in 1.8 mi Variable 3.5 mph - N/A   Overcast
9:27 AM 68.0 °F 66.2 °F 94% 30.08 in 3.0 mi Variable 6.9 mph - 0.08 in Rain Light Rain
9:39 AM 68.0 °F 66.2 °F 94% 30.09 in 8.0 mi Variable 4.6 mph - 0.08 in   Overcast
9:56 AM 68.0 °F 66.9 °F 96% 30.08 in 9.0 mi NE 5.8 mph - 0.08 in   Overcast
10:56 AM 69.1 °F 66.9 °F 93% 30.07 in 6.0 mi ENE 9.2 mph - 0.10 in Rain Light Rain
11:56 AM 69.1 °F 66.9 °F 93% 30.07 in 10.0 mi Variable 4.6 mph - 0.02 in   Overcast
12:56 PM 70.0 °F 66.9 °F 90% 30.06 in 10.0 mi ENE 6.9 mph - N/A   Overcast
1:05 PM 69.8 °F 66.2 °F 88% 30.07 in 10.0 mi ENE 4.6 mph - N/A   Overcast
1:56 PM 72.0 °F 68.0 °F 87% 30.05 in 10.0 mi ENE 6.9 mph - N/A   Overcast
2:56 PM 73.0 °F 69.1 °F 87% 30.03 in 10.0 mi NNE 4.6 mph - N/A   Overcast
3:47 PM 73.4 °F 69.8 °F 88% 30.02 in 10.0 mi North 5.8 mph - N/A   Overcast
3:56 PM 73.0 °F 69.1 °F 87% 30.01 in 10.0 mi NE 5.8 mph - N/A   Overcast
4:56 PM 73.0 °F 70.0 °F 90% 30.00 in 10.0 mi NE 4.6 mph - N/A   Overcast
5:03 PM 73.4 °F 69.8 °F 88% 30.01 in 10.0 mi ENE 5.8 mph - N/A   Overcast
5:56 PM 73.0 °F 70.0 °F 90% 30.00 in 10.0 mi Variable 4.6 mph - N/A   Overcast
6:56 PM 73.0 °F 70.0 °F 90% 30.00 in 10.0 mi NNE 3.5 mph - N/A   Overcast
7:56 PM 73.0 °F 70.0 °F 90% 30.01 in 10.0 mi Calm Calm - N/A   Overcast
8:32 PM 73.4 °F 69.8 °F 88% 30.03 in 10.0 mi ENE 4.6 mph - N/A   Overcast
8:56 PM 73.0 °F 70.0 °F 90% 30.03 in 10.0 mi NE 4.6 mph - N/A   Overcast
9:56 PM 73.0 °F 70.0 °F 90% 30.04 in 10.0 mi Calm Calm - N/A   Overcast
10:56 PM 73.0 °F 70.0 °F 90% 30.03 in 10.0 mi Calm Calm - N/A   Overcast